Ruidoso, NM

6:39 AM MDT on April 23, 2018 (GMT -0600)
Sierra Blanca Regional

Weather History for KSRR - June, 2013

Change the Weather History Date:

Wednesday, June 5, 2013

  Actual Average Record
Temperature  
Mean Temperature 67 °F -  
Max Temperature 77 °F 78 °F 89 °F (2014)
Min Temperature 55 °F 53 °F 46 °F (2002)
Cooling Degree Days 2    
Growing Degree Days 17 (Base 50)    
Moisture  
Dew Point 36 °F    
Average Humidity 31    
Maximum Humidity 63    
Minimum Humidity 15    
Precipitation  
Precipitation 0.00 in - - ()
Sea Level Pressure  
Sea Level Pressure 30.17 in    
Wind  
Wind Speed 10 mph (West)    
Max Wind Speed 20 mph    
Max Gust Speed 25 mph    
Visibility 10 miles    
Events      
Averages and records for this station are not official NWS values.
T = Trace of Precipitation, MM = Missing Value Source: NWS Daily Summary

Daily Weather History Graph

Daily Weather History Graph

Search for Another Location

Airport or City:

Astronomy

Jun. 05, 2013 Rise Set
Actual Time 5:52 AM MDT 8:09 PM MDT
Civil Twilight 5:23 AM MDT 8:37 PM MDT
Nautical Twilight 4:48 AM MDT 9:13 PM MDT
Astronomical Twilight 4:10 AM MDT 9:51 PM MDT
Moon 3:51 AM MDT (6/5) 5:43 PM MDT (6/5)
Length of Visible Light 15h 14m
Length of Day
14h 17m
Waning Crescent, 8% of the Moon is Illuminated
Jun 5
Waning Crescent
Jun 8
New
Jun 16
First Quarter
Jun 23
Full
Jun 29
Last Quarter

Hourly Weather History & Observations

Time (MDT) Temp. Dew Point Humidity Pressure Visibility Wind Dir Wind Speed Gust Speed Precip Events Conditions
12:15 AM 68.0 °F 23.0 °F 18% 30.15 in 10.0 mi NE 3.5 mph - N/A   Clear
12:35 AM 68.0 °F 23.0 °F 18% 30.15 in 10.0 mi SW 10.4 mph - N/A   Clear
12:55 AM 66.2 °F 23.0 °F 19% 30.15 in 10.0 mi WSW 9.2 mph - N/A   Clear
1:15 AM 66.2 °F 23.0 °F 19% 30.15 in 10.0 mi WSW 12.7 mph - N/A   Clear
1:35 AM 66.2 °F 24.8 °F 21% 30.14 in 10.0 mi WSW 11.5 mph - N/A   Clear
1:55 AM 66.2 °F 23.0 °F 19% 30.14 in 10.0 mi WSW 9.2 mph - N/A   Clear
2:15 AM 64.4 °F 24.8 °F 22% 30.14 in 10.0 mi West 9.2 mph - N/A   Clear
2:35 AM 66.2 °F 24.8 °F 21% 30.14 in 10.0 mi West 9.2 mph - N/A   Clear
2:55 AM 64.4 °F 24.8 °F 22% 30.14 in 10.0 mi West 9.2 mph - N/A   Clear
3:15 AM 66.2 °F 24.8 °F 21% 30.14 in 10.0 mi West 10.4 mph - N/A   Clear
3:35 AM 68.0 °F 24.8 °F 20% 30.14 in 10.0 mi West 9.2 mph - N/A   Clear
3:55 AM 68.0 °F 24.8 °F 20% 30.15 in 10.0 mi WNW 11.5 mph 17.3 mph N/A   Clear
4:15 AM 68.0 °F 24.8 °F 20% 30.15 in 10.0 mi WNW 10.4 mph - N/A   Clear
4:35 AM 66.2 °F 24.8 °F 21% 30.15 in 10.0 mi North 4.6 mph - N/A   Clear
4:55 AM 62.6 °F 24.8 °F 24% 30.15 in 10.0 mi NE 3.5 mph - N/A   Clear
5:15 AM 62.6 °F 24.8 °F 24% 30.16 in 10.0 mi Calm Calm - N/A   Clear
5:35 AM 64.4 °F 24.8 °F 22% 30.15 in 10.0 mi WNW 8.1 mph - N/A   Clear
5:55 AM 66.2 °F 23.0 °F 19% 30.16 in 10.0 mi WNW 10.4 mph - N/A   Clear
6:15 AM 66.2 °F 23.0 °F 19% 30.16 in 10.0 mi NW 9.2 mph 17.3 mph N/A   Clear
6:35 AM 68.0 °F 23.0 °F 18% 30.17 in 10.0 mi WNW 11.5 mph 19.6 mph N/A   Clear
6:55 AM 68.0 °F 23.0 °F 18% 30.17 in 10.0 mi NW 12.7 mph 17.3 mph N/A   Clear
7:15 AM 71.6 °F 23.0 °F 16% 30.18 in 10.0 mi NW 12.7 mph 17.3 mph N/A   Clear
7:35 AM 71.6 °F 23.0 °F 16% 30.18 in 10.0 mi NW 10.4 mph 17.3 mph N/A   Clear
7:55 AM 73.4 °F 23.0 °F 15% 30.18 in 10.0 mi NNW 15.0 mph 20.7 mph N/A   Clear
8:15 AM 73.4 °F 24.8 °F 16% 30.20 in 10.0 mi North 16.1 mph 24.2 mph N/A   Clear
8:35 AM 71.6 °F 32.0 °F 23% 30.21 in 10.0 mi North 11.5 mph - N/A   Clear
8:55 AM 71.6 °F 32.0 °F 23% 30.21 in 10.0 mi North 13.8 mph - N/A   Clear
9:15 AM 71.6 °F 32.0 °F 23% 30.21 in 10.0 mi NW 15.0 mph 18.4 mph N/A   Clear
9:35 AM 71.6 °F 37.4 °F 29% 30.22 in 10.0 mi NNW 16.1 mph 23.0 mph N/A   Clear
10:15 AM 71.6 °F 44.6 °F 38% 30.22 in 10.0 mi North 10.4 mph - N/A   Unknown
10:35 AM 71.6 °F 44.6 °F 38% 30.23 in 10.0 mi NNW 11.5 mph 18.4 mph N/A   Clear
10:55 AM 71.6 °F 44.6 °F 38% 30.22 in 10.0 mi North 12.7 mph 17.3 mph N/A   Clear
11:15 AM 73.4 °F 42.8 °F 33% 30.22 in 10.0 mi NNW 10.4 mph - N/A   Clear
11:35 AM 75.2 °F 39.2 °F 27% 30.22 in 10.0 mi West 8.1 mph - N/A   Clear
11:55 AM 75.2 °F 37.4 °F 25% 30.21 in 10.0 mi West 8.1 mph - N/A   Clear
12:15 PM 77.0 °F 39.2 °F 26% 30.21 in 10.0 mi East 3.5 mph - N/A   Clear
12:35 PM 75.2 °F 46.4 °F 36% 30.20 in 10.0 mi SE 16.1 mph 21.9 mph N/A   Partly Cloudy
12:55 PM 75.2 °F 46.4 °F 36% 30.20 in 10.0 mi SSE 18.4 mph 25.3 mph N/A   Scattered Clouds
1:15 PM 75.2 °F 46.4 °F 36% 30.19 in 10.0 mi SE 17.3 mph 25.3 mph N/A   Partly Cloudy
1:35 PM 71.6 °F 46.4 °F 41% 30.20 in 10.0 mi SE 18.4 mph 24.2 mph N/A   Clear
1:55 PM 71.6 °F 48.2 °F 43% 30.18 in 10.0 mi SE 17.3 mph 25.3 mph N/A   Clear
2:15 PM 73.4 °F 46.4 °F 38% 30.19 in 10.0 mi SE 16.1 mph 24.2 mph N/A   Partly Cloudy
2:35 PM 75.2 °F 46.4 °F 36% 30.18 in 10.0 mi SSE 18.4 mph 21.9 mph N/A   Partly Cloudy
2:55 PM 75.2 °F 46.4 °F 36% 30.18 in 10.0 mi ESE 16.1 mph 23.0 mph N/A   Clear
3:15 PM 77.0 °F 48.2 °F 36% 30.16 in 10.0 mi SE 15.0 mph 23.0 mph N/A   Clear
3:35 PM 75.2 °F 46.4 °F 36% 30.16 in 10.0 mi ESE 11.5 mph 25.3 mph N/A   Partly Cloudy
3:55 PM 77.0 °F 46.4 °F 34% 30.15 in 8.0 mi SE 18.4 mph - N/A   Clear
4:15 PM 77.0 °F 46.4 °F 34% 30.14 in 8.0 mi ESE 17.3 mph 21.9 mph N/A   Clear
4:35 PM 75.2 °F 46.4 °F 36% 30.13 in 8.0 mi SSE 19.6 mph 24.2 mph N/A   Clear
4:55 PM 73.4 °F 44.6 °F 36% 30.12 in 10.0 mi SE 15.0 mph 18.4 mph N/A   Clear
5:15 PM 75.2 °F 44.6 °F 34% 30.12 in 10.0 mi ESE 10.4 mph 18.4 mph N/A   Partly Cloudy
5:35 PM 75.2 °F 44.6 °F 34% 30.10 in 8.0 mi ESE 15.0 mph 21.9 mph N/A   Clear
5:55 PM 77.0 °F 44.6 °F 32% 30.10 in 8.0 mi SE 15.0 mph 18.4 mph N/A   Clear
6:15 PM 75.2 °F 44.6 °F 34% 30.10 in 9.0 mi ESE 11.5 mph 19.6 mph N/A   Clear
6:35 PM 75.2 °F 44.6 °F 34% 30.10 in 10.0 mi ESE 15.0 mph - N/A   Clear
6:55 PM 75.2 °F 44.6 °F 34% 30.10 in 9.0 mi ESE 15.0 mph - N/A   Clear
7:15 PM 75.2 °F 42.8 °F 31% 30.11 in 10.0 mi SE 13.8 mph - N/A   Clear
7:35 PM 73.4 °F 44.6 °F 36% 30.11 in 10.0 mi ESE 10.4 mph - N/A   Clear
7:55 PM 73.4 °F 44.6 °F 36% 30.12 in 10.0 mi ESE 10.4 mph - N/A   Clear
8:15 PM 71.6 °F 44.6 °F 38% 30.13 in 10.0 mi East 8.1 mph - N/A   Clear
8:35 PM 66.2 °F 41.0 °F 40% 30.14 in 10.0 mi NNE 6.9 mph 18.4 mph N/A   Clear
8:55 PM 66.2 °F 41.0 °F 40% 30.15 in 10.0 mi NNW 4.6 mph - N/A   Clear
9:15 PM 62.6 °F 41.0 °F 45% 30.16 in 10.0 mi WNW 4.6 mph - N/A   Clear
9:35 PM 62.6 °F 41.0 °F 45% 30.16 in 10.0 mi West 6.9 mph - N/A   Clear
9:55 PM 62.6 °F 41.0 °F 45% 30.17 in 10.0 mi West 9.2 mph - N/A   Clear
10:15 PM 60.8 °F 41.0 °F 48% 30.19 in 10.0 mi NW 5.8 mph - N/A   Clear
10:35 PM 60.8 °F 39.2 °F 45% 30.19 in 10.0 mi West 6.9 mph - N/A   Clear
10:55 PM 59.0 °F 44.6 °F 59% 30.21 in 10.0 mi West 5.8 mph - N/A   Clear
11:15 PM 57.2 °F 42.8 °F 59% 30.20 in 10.0 mi WSW 5.8 mph - N/A   Clear
11:35 PM 57.2 °F 42.8 °F 59% 30.21 in 10.0 mi SW 4.6 mph - N/A   Clear
11:55 PM 55.4 °F 42.8 °F 63% 30.21 in 10.0 mi South 8.1 mph - N/A   Clear